Oakland, MD

12:55 AM EST on December 14, 2017 (GMT -0500)
Oakland

Weather History for K2G4 - October, 2012

Change the Weather History Date:

Friday, October 5, 2012

  Actual Average (KMGW) Record (KMGW)
Temperature  
Mean Temperature 60 °F -  
Max Temperature 68 °F 68 °F 89 °F (1959)
Min Temperature 53 °F 46 °F 26 °F (1935)
Degree Days  
Heating Degree Days 4    
Growing Degree Days 10 (Base 50)    
Moisture  
Dew Point 53 °F    
Average Humidity 83    
Maximum Humidity 100    
Minimum Humidity 56    
Precipitation  
Precipitation 0.00 in - - ()
Sea Level Pressure  
Sea Level Pressure 30.15 in    
Wind  
Wind Speed 8 mph (WSW)    
Max Wind Speed 12 mph    
Max Gust Speed 18 mph    
Visibility 10 miles    
Events      
Averages and records for this station are not official NWS values.
T = Trace of Precipitation, MM = Missing Value Source: NWS Daily Summary

Daily Weather History Graph

Daily Weather History Graph

Search for Another Location

Airport or City:

Trip Planner

Search our weather history database for the weather conditions in past years. The results will help you decide how hot, cold, wet, or windy it might be!

Date:

Astronomy

Oct. 05, 2012 Rise Set
Actual Time 7:17 AM EDT 6:52 PM EDT
Civil Twilight 6:50 AM EDT 7:19 PM EDT
Nautical Twilight 6:19 AM EDT 7:50 PM EDT
Astronomical Twilight 5:48 AM EDT 8:21 PM EDT
Moon 10:15 PM EDT (10/5) 12:23 PM EDT (10/5)
Length of Visible Light 12h 28m
Length of Day
11h 34m
Waning Gibbous, 74% of the Moon is Illuminated
Oct 5
Waning Gibbous
Oct 8
Last Quarter
Oct 15
New
Oct 21
First Quarter
Oct 29
Full

Hourly Weather History & Observations

Time (EDT) Temp. Dew Point Humidity Pressure Visibility Wind Dir Wind Speed Gust Speed Precip Events Conditions
12:00 AM 55.4 °F 51.8 °F 88% 30.21 in 10.0 mi WSW 8.1 mph - N/A   Clear
12:20 AM 55.4 °F 51.8 °F 88% 30.21 in 10.0 mi WSW 8.1 mph - N/A   Clear
12:45 AM 55.4 °F 51.8 °F 88% 30.22 in 10.0 mi WSW 8.1 mph - N/A   Clear
1:05 AM 55.4 °F 53.6 °F 94% 30.21 in 10.0 mi WSW 10.4 mph - N/A   Clear
1:25 AM 55.4 °F 53.6 °F 94% 30.22 in 10.0 mi WSW 8.1 mph 16.1 mph N/A   Clear
1:50 AM 55.4 °F 53.6 °F 94% 30.22 in 10.0 mi WSW 9.2 mph 16.1 mph N/A   Clear
2:10 AM 55.4 °F 53.6 °F 94% 30.22 in 10.0 mi WSW 11.5 mph - N/A   Clear
2:50 AM 53.6 °F 53.6 °F 100% 30.21 in 10.0 mi WSW 9.2 mph 18.4 mph N/A   Clear
3:15 AM 53.6 °F 53.6 °F 100% 30.21 in 10.0 mi WSW 10.4 mph - N/A   Clear
3:55 AM 53.6 °F 53.6 °F 100% 30.20 in 10.0 mi West 11.5 mph 16.1 mph N/A   Clear
4:15 AM 53.6 °F 53.6 °F 100% 30.20 in 10.0 mi WSW 9.2 mph - N/A   Clear
4:40 AM 53.6 °F 53.6 °F 100% 30.20 in 10.0 mi WSW 10.4 mph 16.1 mph N/A   Clear
5:00 AM 53.6 °F 53.6 °F 100% 30.20 in 10.0 mi WSW 10.4 mph 16.1 mph N/A   Clear
5:20 AM 53.6 °F 53.6 °F 100% 30.20 in 10.0 mi WSW 9.2 mph - N/A   Clear
5:40 AM 53.6 °F 53.6 °F 100% 30.20 in 10.0 mi West 8.1 mph - N/A   Clear
6:05 AM 53.6 °F 53.6 °F 100% 30.19 in 10.0 mi WSW 8.1 mph - N/A   Clear
6:25 AM 53.6 °F 53.6 °F 100% 30.19 in 10.0 mi WSW 8.1 mph - N/A   Clear
6:45 AM 53.6 °F 53.6 °F 100% 30.20 in 10.0 mi WSW 8.1 mph - N/A   Clear
7:05 AM 53.6 °F 53.6 °F 100% 30.20 in 10.0 mi WSW 6.9 mph - N/A   Clear
7:50 AM 53.6 °F 53.6 °F 100% 30.22 in 10.0 mi WSW 8.1 mph - N/A   Clear
8:10 AM 53.6 °F 53.6 °F 100% 30.22 in 10.0 mi WSW 8.1 mph - N/A   Clear
8:30 AM 55.4 °F 53.6 °F 94% 30.22 in 10.0 mi WSW 10.4 mph - N/A   Clear
8:55 AM 55.4 °F 53.6 °F 94% 30.22 in 10.0 mi WSW 8.1 mph - N/A   Clear
9:15 AM 57.2 °F 53.6 °F 88% 30.22 in 10.0 mi WSW 6.9 mph 16.1 mph N/A   Clear
9:35 AM 59.0 °F 55.4 °F 88% 30.22 in 10.0 mi WSW 6.9 mph - N/A   Clear
9:55 AM 59.0 °F 55.4 °F 88% 30.22 in 10.0 mi WSW 9.2 mph - N/A   Clear
10:20 AM 60.8 °F 55.4 °F 82% 30.21 in 10.0 mi WSW 8.1 mph - N/A   Clear
10:40 AM 60.8 °F 55.4 °F 82% 30.20 in 10.0 mi WSW 9.2 mph 18.4 mph N/A   Clear
11:00 AM 62.6 °F 55.4 °F 77% 30.20 in 10.0 mi WSW 8.1 mph 16.1 mph N/A   Clear
11:20 AM 62.6 °F 55.4 °F 77% 30.19 in 10.0 mi West 9.2 mph - N/A   Clear
11:45 AM 60.8 °F 55.4 °F 82% 30.19 in 10.0 mi WSW 8.1 mph - N/A   Clear
12:05 PM 62.6 °F 55.4 °F 77% 30.18 in 10.0 mi WSW 9.2 mph - N/A   Clear
12:50 PM 62.6 °F 53.6 °F 72% 30.17 in 10.0 mi West 5.8 mph - N/A   Scattered Clouds
1:10 PM 64.4 °F 53.6 °F 68% 30.16 in 10.0 mi WSW 10.4 mph 16.1 mph N/A   Scattered Clouds
1:30 PM 68.0 °F 51.8 °F 56% 30.15 in 10.0 mi WSW 9.2 mph 16.1 mph N/A   Clear
1:50 PM 68.0 °F 51.8 °F 56% 30.14 in 10.0 mi West 10.4 mph 16.1 mph N/A   Scattered Clouds
2:15 PM 68.0 °F 51.8 °F 56% 30.14 in 10.0 mi SW 8.1 mph - N/A   Scattered Clouds
2:35 PM 68.0 °F 53.6 °F 60% 30.13 in 10.0 mi SW 9.2 mph - N/A   Scattered Clouds
2:55 PM 66.2 °F 51.8 °F 60% 30.13 in 10.0 mi WSW 6.9 mph - N/A   Scattered Clouds
3:15 PM 64.4 °F 53.6 °F 68% 30.13 in 10.0 mi West 10.4 mph - N/A   Mostly Cloudy
3:40 PM 64.4 °F 51.8 °F 64% 30.12 in 10.0 mi West 5.8 mph - N/A   Mostly Cloudy
4:00 PM 64.4 °F 51.8 °F 64% 30.12 in 10.0 mi WSW 6.9 mph - N/A   Mostly Cloudy
4:20 PM 64.4 °F 51.8 °F 64% 30.11 in 10.0 mi West 4.6 mph - N/A   Mostly Cloudy
4:40 PM 64.4 °F 51.8 °F 64% 30.11 in 10.0 mi West 5.8 mph - N/A   Scattered Clouds
5:05 PM 66.2 °F 51.8 °F 60% 30.09 in 10.0 mi West 5.8 mph - N/A   Scattered Clouds
5:25 PM 64.4 °F 51.8 °F 64% 30.08 in 10.0 mi WSW 6.9 mph - N/A   Clear
5:45 PM 64.4 °F 51.8 °F 64% 30.08 in 10.0 mi WSW 3.5 mph - N/A   Scattered Clouds
6:05 PM 62.6 °F 51.8 °F 68% 30.08 in 10.0 mi WSW 5.8 mph - N/A   Clear
6:30 PM 62.6 °F 51.8 °F 68% 30.08 in 10.0 mi SSW 3.5 mph - N/A   Clear
6:50 PM 60.8 °F 51.8 °F 72% 30.08 in 10.0 mi SW 4.6 mph - N/A   Clear
7:10 PM 59.0 °F 51.8 °F 77% 30.08 in 10.0 mi SW 5.8 mph - N/A   Clear
7:55 PM 59.0 °F 51.8 °F 77% 30.07 in 10.0 mi SSW 6.9 mph - N/A   Clear
8:15 PM 57.2 °F 53.6 °F 88% 30.07 in 10.0 mi SSW 6.9 mph - N/A   Clear
8:35 PM 57.2 °F 53.6 °F 88% 30.07 in 10.0 mi SSW 8.1 mph - N/A   Clear
8:55 PM 55.4 °F 51.8 °F 88% 30.07 in 10.0 mi SSW 6.9 mph - N/A   Clear
9:20 PM 55.4 °F 53.6 °F 94% 30.05 in 10.0 mi SSW 8.1 mph - N/A   Clear
9:40 PM 55.4 °F 51.8 °F 88% 30.04 in 10.0 mi SSW 9.2 mph - N/A   Clear
10:00 PM 57.2 °F 51.8 °F 82% 30.03 in 10.0 mi SSW 8.1 mph - N/A   Clear
10:20 PM 57.2 °F 51.8 °F 82% 30.03 in 10.0 mi SSW 10.4 mph - N/A   Clear
10:45 PM 55.4 °F 51.8 °F 88% 30.02 in 10.0 mi SSW 9.2 mph - N/A   Clear
11:05 PM 55.4 °F 51.8 °F 88% 30.02 in 10.0 mi SSW 8.1 mph - N/A   Clear
11:25 PM 53.6 °F 51.8 °F 94% 30.02 in 10.0 mi SSW 9.2 mph - N/A   Clear